カタログに戻る

CZ-4 DEB

運用中SSO
NORAD 20866·DEBRIS·🇨🇳 China

打ち上げ Sep 3, 1990 から Taiyuan Satellite Launch Center

Loading…

次のパス (今後24時間)

TLE

最新Source: Space-Track

元期: Sep 14, 2026, 10:37 UTC

1 20866U 90081AE  26257.44259362  .00000284  00000-0  18415-3 0  9993
2 20866  98.9504 236.8491 0070216  60.6823  91.6568 14.09340700840064

AllMySatでCZ-4 DEBをリアルタイム追跡

Download on the App Store